Погода в Ньери

Кения     0°25′18″N   36°57′03″E
темп.,
°C
ветер,
м/с
пор.,
м/с
влажн.,
%
обл.,
%
осадки,
мм/ч
давл.,
гПа
погр.,
м
27 ноября, сб
сб2700:00+14з129486 0.8 101835
03:00+12зсз119491 0.8 101813
06:00+13з119499 0.0 101815
09:00+19ююв127697 0.2 1017384
12:00+21юв2268100 1.8 1015972
15:00+18в1285100 4.9 1013127
18:00+17ю119298 3.1 101528
21:00+14з229723 6.1 101730
28 ноября, вс
вс2800:00+14зюз1197100 1.5 101723
03:00+15юз019995 6.4 101677
06:00+14зюз119696 0.8 101742
09:00+15юв1198100 4.2 1019130
12:00+16юз2291100 2.4 1017246
15:00+19вюв117287 2.4 1013508
18:00+16с118897 0.3 101422
21:00+14юз229639 5.6 101745
29 ноября, пн
пн2900:00+14зюз229830 0.3 101745
03:00+13зюз229694 0.3 101629
06:00+13зюз229656 0.0 101725
09:00+19ююв117416 0.0 1017658
12:00+22вюв336168 0.4 10131402
15:00+20ююв247798 2.6 1012752
18:00+16ю259472 2.9 1014174
21:00+15ююз239998 4.4 1017136
30 ноября, вт
вт3000:00+14зюз239675 0.5 101776
03:00+14з129664 0.6 101546
06:00+13зсз119692 0.0 101719
09:00+19св11766 0.1 1016523
12:00+21вюв3364100 1.2 10131233
15:00+19ююв3578100 3.1 1012706
18:00+17ю129299 2.0 101345
21:00+15ююз239894 3.0 1016194
1 декабря, ср
ср100:00+15ююз129898 0.3 1015122
03:00+15юз019781 0.4 101437
06:00+14ссз119642 0.1 101516
09:00+19св12759 0.1 1016644
12:00+23в325459 0.4 10121593
15:00+20вюв257487 2.3 1011465
18:00+17ююв258723 1.2 1012125
21:00+14юз249736 1.9 101694